Total_Precipitation_Accumulation
0.27 0.22 0.31 0.36 0.34 0.37 0.48 0.47 0.37 0.21 0.16 0.18 0.18 0.18 0.18 0.16 0.13 0.10 0.10 0.08 0.08 0.10 0.13 0.14 0.14 0.14 0.17 0.24 0.31 0.50 0.72 0.89 0.91 0.86 0.93 0.99 0.98 1.05 1.12 1.18 1.25 1.39 1.49 1.62
0.23 0.13 0.19 0.25 0.20 0.23 0.26 0.26 0.23 0.18 0.19 0.17 0.17 0.15 0.16 0.15 0.14 0.13 0.12 0.11 0.08 0.09 0.12 0.14 0.14 0.14 0.17 0.20 0.26 0.39 0.56 0.76 0.87 0.86 0.90 0.98 0.97 1.03 1.11 1.18 1.23 1.36 1.41 1.44
0.38 0.15 0.33 0.44 0.26 0.23 0.22 0.22 0.23 0.25 0.24 0.17 0.16 0.16 0.17 0.16 0.15 0.17 0.16 0.14 0.11 0.11 0.13 0.14 0.14 0.15 0.18 0.19 0.20 0.29 0.44 0.62 0.77 0.80 0.80 0.86 0.89 0.98 1.07 1.17 1.16 1.22 1.26 1.25
0.64 0.46 0.75 0.44 0.18 0.20 0.24 0.26 0.25 0.25 0.21 0.19 0.18 0.19 0.17 0.16 0.17 0.18 0.18 0.16 0.15 0.15 0.15 0.14 0.13 0.14 0.16 0.18 0.20 0.24 0.35 0.51 0.70 0.75 0.74 0.75 0.79 0.84 0.94 1.06 1.12 1.09 1.10 1.09
0.97 0.69 0.43 0.21 0.11 0.18 0.29 0.32 0.24 0.19 0.14 0.14 0.16 0.16 0.16 0.14 0.12 0.13 0.15 0.15 0.15 0.17 0.18 0.17 0.15 0.15 0.17 0.19 0.19 0.23 0.35 0.48 0.61 0.72 0.72 0.68 0.74 0.77 0.82 0.89 0.98 0.98 0.96 1.02
1.17 0.85 0.45 0.23 0.09 0.12 0.25 0.39 0.20 0.14 0.12 0.13 0.17 0.22 0.18 0.13 0.08 0.06 0.08 0.10 0.11 0.13 0.15 0.17 0.17 0.17 0.19 0.23 0.23 0.26 0.39 0.50 0.55 0.64 0.66 0.64 0.69 0.76 0.78 0.79 0.85 0.88 0.84 0.89
0.98 0.77 0.33 0.15 0.09 0.14 0.37 0.43 0.18 0.12 0.11 0.12 0.19 0.23 0.15 0.09 0.08 0.06 0.06 0.08 0.09 0.11 0.13 0.16 0.18 0.19 0.20 0.23 0.26 0.29 0.38 0.45 0.51 0.57 0.60 0.59 0.67 0.70 0.74 0.78 0.79 0.80 0.77 0.80
0.74 0.82 0.39 0.14 0.15 0.32 0.39 0.17 0.11 0.09 0.08 0.09 0.11 0.10 0.08 0.08 0.08 0.08 0.07 0.06 0.07 0.10 0.12 0.13 0.16 0.17 0.19 0.24 0.28 0.32 0.35 0.39 0.47 0.54 0.56 0.57 0.67 0.67 0.68 0.74 0.78 0.78 0.77 0.80
0.54 0.43 0.23 0.17 0.22 0.23 0.18 0.14 0.09 0.08 0.07 0.08 0.09 0.09 0.09 0.09 0.08 0.09 0.07 0.06 0.06 0.08 0.10 0.12 0.14 0.16 0.18 0.22 0.29 0.37 0.36 0.37 0.44 0.52 0.58 0.61 0.67 0.69 0.69 0.71 0.74 0.78 0.78 0.76
0.34 0.21 0.17 0.15 0.15 0.13 0.09 0.09 0.08 0.08 0.08 0.09 0.09 0.08 0.09 0.10 0.10 0.11 0.10 0.07 0.06 0.08 0.11 0.13 0.16 0.17 0.19 0.22 0.28 0.38 0.38 0.38 0.43 0.49 0.58 0.60 0.65 0.67 0.69 0.73 0.82 0.86 0.81 0.76
0.29 0.18 0.14 0.11 0.10 0.11 0.09 0.07 0.06 0.06 0.07 0.08 0.08 0.08 0.08 0.09 0.11 0.12 0.11 0.08 0.07 0.07 0.11 0.14 0.18 0.19 0.18 0.21 0.29 0.37 0.40 0.40 0.42 0.46 0.58 0.61 0.64 0.66 0.68 0.67 0.86 1.01 0.91 0.90
0.26 0.17 0.18 0.13 0.09 0.10 0.11 0.09 0.08 0.09 0.08 0.07 0.08 0.09 0.09 0.11 0.11 0.11 0.10 0.08 0.08 0.07 0.09 0.14 0.18 0.20 0.20 0.22 0.28 0.36 0.42 0.44 0.45 0.48 0.58 0.62 0.64 0.68 0.71 0.71 0.75 0.77 0.81 0.90
0.16 0.09 0.10 0.10 0.08 0.07 0.10 0.11 0.12 0.12 0.12 0.11 0.09 0.09 0.11 0.12 0.11 0.10 0.09 0.08 0.08 0.09 0.11 0.14 0.19 0.22 0.24 0.25 0.27 0.35 0.44 0.48 0.48 0.49 0.57 0.62 0.57 0.62 0.64 0.66 0.69 0.72 0.73 0.78
0.12 0.11 0.12 0.10 0.09 0.08 0.07 0.09 0.10 0.11 0.10 0.11 0.11 0.11 0.11 0.11 0.11 0.10 0.08 0.09 0.09 0.09 0.11 0.15 0.18 0.21 0.27 0.28 0.27 0.33 0.42 0.47 0.50 0.52 0.57 0.60 0.56 0.56 0.56 0.63 0.68 0.71 0.75 0.80
0.10 0.11 0.11 0.08 0.08 0.08 0.07 0.07 0.09 0.09 0.09 0.08 0.09 0.09 0.10 0.11 0.10 0.09 0.08 0.08 0.08 0.08 0.09 0.12 0.15 0.20 0.25 0.26 0.27 0.34 0.45 0.51 0.53 0.57 0.60 0.60 0.58 0.58 0.55 0.58 0.62 0.66 0.74 0.89
0.10 0.07 0.07 0.07 0.08 0.09 0.09 0.09 0.10 0.11 0.11 0.11 0.10 0.11 0.12 0.11 0.09 0.08 0.07 0.08 0.09 0.09 0.10 0.12 0.15 0.20 0.25 0.25 0.27 0.32 0.42 0.58 0.63 0.64 0.65 0.64 0.62 0.61 0.60 0.60 0.62 0.66 0.75 0.88
0.14 0.11 0.09 0.09 0.09 0.10 0.11 0.12 0.12 0.14 0.14 0.14 0.14 0.14 0.14 0.11 0.08 0.08 0.08 0.09 0.10 0.11 0.12 0.14 0.17 0.21 0.25 0.26 0.30 0.36 0.45 0.56 0.67 0.69 0.68 0.70 0.69 0.65 0.64 0.66 0.68 0.69 0.73 0.87
0.15 0.14 0.13 0.15 0.15 0.14 0.13 0.13 0.13 0.14 0.15 0.15 0.15 0.15 0.15 0.13 0.12 0.11 0.10 0.10 0.10 0.10 0.13 0.17 0.21 0.24 0.25 0.27 0.34 0.41 0.51 0.61 0.69 0.77 0.79 0.79 0.78 0.72 0.71 0.72 0.69 0.71 0.73 0.83
0.13 0.14 0.14 0.14 0.15 0.15 0.17 0.18 0.17 0.15 0.14 0.14 0.13 0.14 0.15 0.14 0.14 0.13 0.12 0.12 0.13 0.16 0.18 0.21 0.26 0.24 0.27 0.33 0.44 0.50 0.58 0.67 0.74 0.80 0.83 0.88 0.86 0.78 0.76 0.75 0.75 0.76 0.79 0.84
0.16 0.16 0.16 0.16 0.14 0.16 0.17 0.18 0.18 0.15 0.14 0.14 0.15 0.14 0.15 0.15 0.16 0.17 0.17 0.17 0.20 0.25 0.27 0.30 0.29 0.30 0.36 0.45 0.56 0.59 0.64 0.73 0.81 0.86 0.88 0.89 0.90 0.90 0.87 0.83 0.82 0.83 0.84 0.87
0.20 0.18 0.17 0.16 0.15 0.15 0.16 0.18 0.20 0.18 0.16 0.16 0.19 0.19 0.19 0.19 0.19 0.20 0.22 0.24 0.25 0.29 0.32 0.34 0.34 0.41 0.54 0.62 0.61 0.61 0.67 0.78 0.85 0.88 0.91 0.94 0.96 0.94 0.93 0.90 0.87 0.87 0.88 0.87
0.24 0.23 0.21 0.20 0.20 0.21 0.21 0.22 0.24 0.23 0.21 0.21 0.22 0.23 0.23 0.24 0.22 0.23 0.26 0.34 0.37 0.38 0.37 0.36 0.41 0.52 0.63 0.66 0.61 0.64 0.72 0.83 0.90 0.90 0.93 0.95 1.00 1.03 0.98 0.95 0.93 0.90 0.91 0.90
0.32 0.30 0.29 0.29 0.30 0.31 0.29 0.29 0.30 0.30 0.31 0.31 0.31 0.30 0.31 0.31 0.29 0.30 0.35 0.38 0.40 0.41 0.42 0.46 0.53 0.58 0.63 0.64 0.65 0.69 0.80 0.92 0.98 0.98 0.97 0.98 1.02 1.07 1.07 1.03 0.96 0.94 0.97 0.96
0.40 0.38 0.38 0.40 0.38 0.37 0.38 0.40 0.40 0.40 0.41 0.42 0.42 0.41 0.39 0.37 0.36 0.39 0.45 0.47 0.46 0.46 0.50 0.54 0.56 0.58 0.62 0.63 0.69 0.79 0.91 1.01 1.05 1.05 1.04 1.03 1.05 1.09 1.09 1.06 1.01 0.95 0.94 0.94
0.46 0.45 0.45 0.46 0.49 0.52 0.51 0.48 0.46 0.45 0.43 0.44 0.45 0.45 0.45 0.45 0.48 0.51 0.51 0.50 0.49 0.49 0.51 0.54 0.55 0.57 0.59 0.65 0.75 0.89 1.00 1.06 1.14 1.16 1.14 1.12 1.09 1.10 1.10 1.06 1.00 0.93 0.90 0.89
0.50 0.51 0.53 0.55 0.59 0.60 0.57 0.52 0.50 0.49 0.45 0.44 0.44 0.45 0.47 0.48 0.50 0.52 0.52 0.52 0.51 0.53 0.55 0.55 0.56 0.60 0.66 0.73 0.81 0.93 1.01 1.07 1.16 1.18 1.13 1.11 1.09 1.10 1.11 1.06 0.96 0.88 0.83 0.82
0.53 0.53 0.51 0.52 0.55 0.57 0.56 0.55 0.54 0.53 0.49 0.46 0.46 0.46 0.47 0.48 0.49 0.51 0.50 0.50 0.52 0.53 0.55 0.58 0.60 0.66 0.72 0.80 0.87 0.94 1.01 1.07 1.16 1.23 1.18 1.14 1.13 1.12 1.11 1.02 0.91 0.83 0.78 0.79